TimeEST,TemperatureF,Dew PointF,Humidity,Sea Level PressureIn,VisibilityMPH,Wind Direction,Wind SpeedMPH,Gust SpeedMPH,PrecipitationIn,Events,Conditions,WindDirDegrees,DateUTC
12:15 AM,41.0,14.0,33,30.11,10.0,West,4.6,-,N/A,,Clear,260,2013-02-21 05:15:00
12:35 AM,42.8,14.0,31,30.11,10.0,West,5.8,-,N/A,,Clear,270,2013-02-21 05:35:00
12:55 AM,42.8,14.0,31,30.10,10.0,WNW,4.6,-,N/A,,Clear,290,2013-02-21 05:55:00
1:15 AM,41.0,12.2,31,30.10,10.0,WNW,4.6,-,N/A,,Clear,290,2013-02-21 06:15:00
1:35 AM,41.0,15.8,36,30.12,10.0,West,5.8,-,N/A,,Clear,260,2013-02-21 06:35:00
1:55 AM,39.2,17.6,42,30.10,10.0,NNW,3.5,-,N/A,,Clear,340,2013-02-21 06:55:00
2:15 AM,37.4,21.2,52,30.11,10.0,NW,4.6,-,N/A,,Clear,320,2013-02-21 07:15:00
2:35 AM,37.4,17.6,45,30.11,10.0,NNW,4.6,-,N/A,,Clear,330,2013-02-21 07:35:00
2:55 AM,37.4,21.2,52,30.10,10.0,Calm,Calm,-,N/A,,Clear,0,2013-02-21 07:55:00
3:15 AM,35.6,23.0,60,30.10,10.0,NNW,3.5,-,N/A,,Clear,330,2013-02-21 08:15:00
3:35 AM,33.8,21.2,60,30.10,10.0,NW,4.6,-,N/A,,Clear,320,2013-02-21 08:35:00
3:55 AM,33.8,23.0,65,30.11,10.0,Calm,Calm,-,N/A,,Clear,0,2013-02-21 08:55:00
4:15 AM,33.8,21.2,60,30.10,10.0,NNW,3.5,-,N/A,,Clear,330,2013-02-21 09:15:00
4:35 AM,35.6,19.4,52,30.11,10.0,NW,4.6,-,N/A,,Clear,320,2013-02-21 09:35:00
4:55 AM,35.6,19.4,52,30.12,10.0,NW,3.5,-,N/A,,Clear,320,2013-02-21 09:55:00
5:15 AM,35.6,19.4,52,30.11,10.0,North,5.8,-,N/A,,Clear,10,2013-02-21 10:15:00
5:35 AM,35.6,19.4,52,30.11,10.0,North,4.6,-,N/A,,Clear,10,2013-02-21 10:35:00
5:55 AM,33.8,21.2,60,30.12,10.0,North,5.8,-,N/A,,Clear,360,2013-02-21 10:55:00
6:15 AM,35.6,19.4,52,30.13,10.0,North,4.6,-,N/A,,Clear,10,2013-02-21 11:15:00
6:55 AM,33.8,21.2,60,30.14,10.0,NNE,3.5,-,N/A,,Clear,20,2013-02-21 11:55:00
7:15 AM,33.8,23.0,65,30.16,10.0,North,4.6,-,N/A,,Clear,10,2013-02-21 12:15:00
7:35 AM,33.8,23.0,65,30.16,10.0,North,4.6,-,N/A,,Clear,10,2013-02-21 12:35:00
7:55 AM,35.6,21.2,56,30.17,10.0,NE,3.5,-,N/A,,Clear,40,2013-02-21 12:55:00
8:15 AM,37.4,19.4,48,30.17,10.0,ENE,4.6,-,N/A,,Clear,60,2013-02-21 13:15:00
8:35 AM,41.0,19.4,42,30.17,10.0,ENE,4.6,-,N/A,,Clear,70,2013-02-21 13:35:00
8:55 AM,41.0,15.8,36,30.18,10.0,ENE,6.9,-,N/A,,Clear,60,2013-02-21 13:55:00
9:15 AM,42.8,15.8,34,30.19,10.0,East,9.2,-,N/A,,Clear,80,2013-02-21 14:15:00
9:35 AM,42.8,15.8,34,30.19,10.0,East,6.9,-,N/A,,Clear,100,2013-02-21 14:35:00
9:55 AM,44.6,15.8,31,30.20,10.0,ENE,5.8,-,N/A,,Clear,70,2013-02-21 14:55:00
10:15 AM,46.4,15.8,29,30.20,10.0,East,6.9,-,N/A,,Clear,90,2013-02-21 15:15:00
10:35 AM,46.4,17.6,32,30.19,10.0,East,4.6,-,N/A,,Clear,80,2013-02-21 15:35:00
10:55 AM,50.0,17.6,28,30.19,10.0,Calm,Calm,-,N/A,,Clear,0,2013-02-21 15:55:00
11:15 AM,53.6,19.4,26,30.18,10.0,ESE,4.6,-,N/A,,Clear,120,2013-02-21 16:15:00
11:35 AM,53.6,17.6,24,30.17,10.0,East,5.8,-,N/A,,Clear,90,2013-02-21 16:35:00
6:15 PM,57.2,26.6,31,30.03,10.0,East,6.9,-,N/A,,Clear,80,2013-02-21 23:15:00
6:35 PM,55.4,26.6,33,30.04,10.0,East,5.8,-,N/A,,Clear,90,2013-02-21 23:35:00
6:55 PM,53.6,26.6,35,30.04,10.0,East,5.8,-,N/A,,Clear,90,2013-02-21 23:55:00
7:15 PM,53.6,30.2,41,30.04,10.0,East,4.6,-,N/A,,Clear,90,2013-02-22 00:15:00
7:35 PM,53.6,28.4,38,30.03,10.0,East,6.9,-,N/A,,Clear,90,2013-02-22 00:35:00
7:55 PM,53.6,23.0,30,30.05,10.0,ESE,4.6,-,N/A,,Clear,120,2013-02-22 00:55:00
8:15 PM,53.6,23.0,30,30.06,10.0,East,3.5,-,N/A,,Clear,90,2013-02-22 01:15:00
8:35 PM,53.6,26.6,35,30.07,10.0,East,3.5,-,N/A,,Clear,80,2013-02-22 01:35:00
8:55 PM,53.6,30.2,41,30.09,10.0,Calm,Calm,-,N/A,,Clear,0,2013-02-22 01:55:00
9:15 PM,51.8,32.0,47,30.09,10.0,ENE,4.6,-,N/A,,Clear,70,2013-02-22 02:15:00
9:35 PM,53.6,28.4,38,30.08,10.0,East,5.8,-,N/A,,Clear,80,2013-02-22 02:35:00
10:15 PM,53.6,26.6,35,30.11,10.0,ENE,3.5,-,N/A,,Scattered Clouds,60,2013-02-22 03:15:00
10:35 PM,53.6,28.4,38,30.10,10.0,ENE,8.1,-,N/A,,Mostly Cloudy,70,2013-02-22 03:35:00
10:55 PM,53.6,28.4,38,30.12,10.0,ENE,5.8,-,N/A,,Mostly Cloudy,70,2013-02-22 03:55:00
11:15 PM,53.6,28.4,38,30.11,10.0,ENE,5.8,-,N/A,,Overcast,70,2013-02-22 04:15:00
11:35 PM,53.6,28.4,38,30.10,10.0,East,6.9,-,N/A,,Overcast,80,2013-02-22 04:35:00
11:55 PM,53.6,28.4,38,30.10,10.0,East,9.2,-,N/A,,Overcast,90,2013-02-22 04:55:00